This demonstration page uses our WeatherBlox Daily Observations layout. Learn more.

Left ArrowRight Arrow

Hourly Observations for October 24, 2015

Temp ( °F °C ) Dew Point ( °F °C ) Humidity (%) Winds ( mph kmh ) Pressure ( in mb ) Visibility ( mi km ) Precip ( " mm )
12:53 am 00:53 Mostly Cloudy 66 18.9 57 13.9 73 73 Calm 30.07 1018 10 16 0.00 0.00
1:53 am 01:53 Cloudy 64 17.8 57 13.9 78 78 ESE 3 6 30.06 1018 10 16 0.00 0.00
2:53 am 02:53 Cloudy 63 17.2 57 13.9 81 81 Calm 30.06 1018 8 13 0.00 0.00
3:53 am 03:53 Cloudy 62 16.7 57 13.9 84 84 Calm 30.04 1017 9 14 0.00 0.00
4:53 am 04:53 Cloudy 64 17.8 58 14.4 81 81 ESE 3 6 30.03 1017 10 16 0.00 0.03
5:53 am 05:53 Cloudy with Light Rain 63 17.2 58 14.4 84 84 S 5 7 30.04 1017 7 11 0.00 0.03
6:53 am 06:53 Cloudy 62 16.7 58 14.4 86 86 Calm 30.04 1017 9 14 0.01 0.25
7:53 am 07:53 Cloudy 62 16.7 58 14.4 86 86 SE 3 6 30.04 1017 9 14 0.00 0.00
8:53 am 08:53 Cloudy 63 17.2 59 15 87 87 Calm 30.03 1017 9 14 0.00 0.00
9:53 am 09:53 Cloudy with Light Rain 65 18.3 61 16.1 87 87 SSW 6 9 30.04 1017 8 13 0.00 0.03
10:53 am 10:53 Cloudy with Light Rain 67 19.4 62 16.7 84 84 VRB 6 9 30.02 1017 10 16 0.00 0.03
11:28 am 11:28 Cloudy with Light Rain 68 20 62 16.7 81 81 VRB 6 9 30.03 1017 10 16 0.00 0.03
11:53 am 11:53 Cloudy with Light Rain 70 21.1 62 16.7 76 76 SSW 8 13 30.01 1016 10 16 0.00 0.03
12:53 pm 12:53 Cloudy with Light Rain 72 22.2 62 16.7 71 71 VRB 7 11 30.00 1016 10 16 0.00 0.03
1:53 pm 13:53 Cloudy with Light Rain 71 21.7 61 16.1 71 71 SSW 9 15 29.98 1015 10 16 0.00 0.03
2:27 pm 14:27 Mostly Cloudy with Light Rain 73 22.8 61 16.1 66 66 SSW 10 17 29.97 1015 10 16 0.00 0.03
2:37 pm 14:37 Mostly Cloudy with Light Rain 73 22.8 61 16.1 66 66 SSW 13 20 29.97 1015 10 16 0.00 0.03
2:53 pm 14:53 Cloudy with Light Rain 72 22.2 61 16.1 68 68 SSW 9 15 29.95 1014 10 16 0.00 0.03
3:53 pm 15:53 Cloudy with Light Rain 69 20.6 63 17.2 81 81 SSW 7 11 29.95 1014 10 16 0.01 0.25
4:53 pm 16:53 Cloudy with Rain 67 19.4 64 17.8 91 91 VRB 7 11 29.94 1014 5 8 0.01 0.25
5:03 pm 17:03 Cloudy with Light Rain 67 19.4 64 17.8 91 91 SSW 8 13 29.94 1014 5 8 0.01 0.25
5:53 pm 17:53 Cloudy with Light Rain 67 19.4 64 17.8 91 91 SSW 7 11 29.94 1014 10 16 0.01 0.25
6:26 pm 18:26 Cloudy with Rain 67 19.4 65 18.3 93 93 SSW 8 13 29.94 1014 2 2 0.04 1.02
6:38 pm 18:38 Cloudy with Rain 67 19.4 65 18.3 93 93 SSW 10 17 29.94 1014 3 5 0.07 1.78
6:53 pm 18:53 Cloudy with Light Rain 67 19.4 65 18.3 93 93 VRB 7 11 29.95 1014 6 10 0.09 2.29
7:15 pm 19:15 Cloudy with Heavy Rain 67 19.4 65 18.3 93 93 WSW 8 13 29.97 1015 2 3 0.08 2.03
7:21 pm 19:21 Cloudy with Heavy Rain 66 18.9 65 18.3 96 96 SW 6 9 29.97 1015 1 2 0.14 3.56
7:28 pm 19:28 Cloudy with Heavy Rain 67 19.4 65 18.3 93 93 W 6 9 29.97 1015 2 3 0.18 4.57
7:42 pm 19:42 Cloudy with Light Rain 66 18.9 65 18.3 96 96 SW 5 7 29.97 1015 5 8 0.21 5.33
7:53 pm 19:53 Cloudy with Light Rain 66 18.9 64 17.8 93 93 WSW 6 9 29.97 1015 10 16 0.22 5.59
8:36 pm 20:36 Cloudy with Light Rain 66 18.9 64 17.8 93 93 SW 3 6 30.00 1016 10 16 0.01 0.25
8:53 pm 20:53 Cloudy with Light Rain 66 18.9 65 18.3 96 96 VRB 7 11 29.98 1015 10 16 0.01 0.25
9:18 pm 21:18 Cloudy with Light Rain 63 17.2 59 15 87 87 W 10 17 30.03 1017 10 16 0.01 0.25
9:53 pm 21:53 Cloudy with Light Rain 63 17.2 56 13.3 78 78 WNW 12 19 30.03 1017 10 16 0.01 0.25
10:53 pm 22:53 Cloudy with Light Rain 61 16.1 56 13.3 84 84 WNW 6 9 30.06 1018 10 16 0.00 0.03
11:53 pm 23:53 Cloudy with Light Rain 60 15.6 54 12.2 80 80 WNW 12 19 30.08 1019 10 16 0.00 0.03

Powered by AerisWeather